Location: Aufkirchen
(47.9603°N, 11.3653°E)
Time: 09:53:58
(UTC+01:00)

Tiros 1 - Pass Details

Date: 27 November 2020
Orbit: 630 x 663 km, 48.4° (Epoch: 21 January)

Event Time Altitude Azimuth Distance (km) Brightness Sun altitude
Rises 17:00:52 0° 241° (WSW) 2,986 13.4 -6.0°
Reaches altitude 10° 17:03:13 10° 238° (WSW) 2,073 11.5 -6.3°
Maximum altitude 17:07:57 62° 159° (SSE) 739 7.5 -7.1°
Drops below altitude 10° 17:12:40 10° 79° (ENE) 2,065 9.1 -7.8°
Enters shadow 17:12:51 - 78° (ENE) 2,135 9.2 -7.8°
Sets 17:15:01 0° 76° (ENE) 2,973 - -8.1°
